SL-8 R/B

Satellite information

Favourite Embed

Satellite Type and Status

ROCKET BODYIN ORBIT

Key statistics

Satellite SL-8 R/B at a glance.

Uptime

17530

Days in orbit

Revolutions

≈ 14.4

Per day

Orbit

LEO

Low Earth Orbit

Inclination

74.0

Latest

Satellite identification and parameters

Extended collection of information and parameters for SL-8 R/B.

Object identification

Identified? True

Debris? False

Object name: SL-8 R/B

International designator: 1977-119B

Object number (NORAD): 10521

Object ID (CCSDS): 10521

Country: COMMONWEALTH OF INDEPENDENT STATES (CIS)

Current information (Y/N): Y

RCS size: LARGE

Orbital parameters

Period: 99.839 minutes

Inclination: 74.0269 deg

SMA: 7128.962 km

Apoapsis: 766.326 km

Periapsis: 735.329 km

RAAN: 285.7385 deg

Eccentricy: 0.00217401

Argument of periapsis: 263.1821 deg

Mean anomaly: 96.6861 deg

Mean motion: 14.4232556 rev/day

Mean motion (dot): 0.00000548 rev/day2

B* drag term: 0.00017372752 1/REarth

Two-line elements (TLE)

Creation date: Dec. 12, 2025, 10:14 a.m.

Reference frame: TEME

Reference center: EARTH

Epoch: Dec. 12, 2025, 6:28 a.m. UTC

TLE line 0: 0 SL-8 R/B

TLE line 1: 1 10521U 77119B 25346.26955030 .00000548 00000-0 17373-3 0 9995

TLE line 2: 2 10521 74.0269 285.7385 0021740 263.1821 96.6861 14.42325560518512

Live tracking on map

Real-time ground track for satellite SL-8 R/B.

In-orbit conjunctions

A list of the most updated potential collisions computed for object SL-8 R/B.

Target Orbit TCA Probability of collision Miss distance Type
IRIDIUM 33 DEB LEO 2025-11-16 11:37:22 0.0001270942 985.0 (m) DEBRIS
COSMOS 1275 DEB LEO 2025-03-17 19:11:08 0.000212475 803.0 (m) DEBRIS
CZ-6A DEB LEO 2025-02-25 10:25:07 0.0006831616 764.0 (m) DEBRIS
CZ-6A DEB SSO 2025-01-12 19:12:54 0.0005864128 132.0 (m) DEBRIS
IRIDIUM 33 DEB LEO 2024-09-12 18:49:14 0.002920549 92.0 (m) DEBRIS

Associated space launch

Military communications satellite

SL-8 R/B was lifted into orbit during the mission ‘Kosmos-3M | Strela-2M 16’, on board a Kosmos-3M space rocket.

The launch took place on Dec. 16, 1977, 4:25 a.m. from 132/1 (132L).

For more information about the launch, click the button.

Launch to space Kosmos-3M | Strela-2M 16
Kosmos-3M | Strela-2M 16

Agency: N/A

Status: Launch Successful

Launch date: Dec. 16, 1977, 4:25 a.m. UTC

Rocket: Kosmos-3M

Launch pad: 132/1 (132L)

Location: Plesetsk Cosmodrome, Russian Federation

...

Latest news about this satellite

There are no fresh news available about this satellite. Check back as we update our databases every day.


Newsletter sign-up

Weekly statistics, charts and insights to help you stay on top of the space industry.